Weather History for LICZ - February, 2013

Change the Weather History Date:

Friday, February 22, 2013

  Actual Average Record
Temperature  
Mean Temperature 55 °F -  
Max Temperature 64 °F 63 °F 69 °F (1999)
Min Temperature 46 °F 43 °F 35 °F (2005)
Degree Days  
Heating Degree Days 10    
Growing Degree Days 5 (Base 50)    
Moisture  
Dew Point 46 °F    
Average Humidity 76    
Maximum Humidity 100    
Minimum Humidity 42    
Precipitation  
Precipitation 0.04 in 0.05 in - ()
Sea Level Pressure  
Sea Level Pressure 29.70 in    
Wind  
Wind Speed 13 mph ()    
Max Wind Speed 18 mph    
Max Gust Speed -    
Visibility 5.4 miles    
Events Rain    
Averages and records for this station are not official NWS values.
T = Trace of Precipitation, MM = Missing Value Source: Averaged Metar Reports

Daily Weather History Graph

Daily Weather History Graph

Search for Another Location

Airport or City:

Trip Planner

Search our weather history database for the weather conditions in past years. The results will help you decide how hot, cold, wet, or windy it might be!

Date:

Astronomy

Feb. 22, 2013 Rise Set
Actual Time 6:40 AM CET 5:47 PM CET
Civil Twilight 6:14 AM CET 6:13 PM CET
Nautical Twilight 5:44 AM CET 6:44 PM CET
Astronomical Twilight 5:13 AM CET 7:14 PM CET
Moon 2:44 PM CET (2/22) 4:11 AM CET (2/22)
Length of Visible Light 11h 59m
Length of Day
11h 06m
Waxing Gibbous, 88% of the Moon is Illuminated
Feb 22
Waxing Gibbous
Feb 25
Full
Mar 4
Last Quarter
Mar 11
New
Mar 19
First Quarter

Hourly Weather History & Observations

Time (CET) Temp. Dew Point Humidity Pressure Visibility Wind Dir Wind Speed Gust Speed Precip Events Conditions
12:55 AM 51.8 °F 48.2 °F 88% 29.65 in 5.0 mi West 18.4 mph - N/A   Scattered Clouds
1:00 AM 51 °F 49 °F 88% 29.67 in 5 mi West 18.4 mph - -   Mist
1:55 AM 50.0 °F 46.4 °F 87% 29.65 in 5.0 mi West 18.4 mph - N/A   Scattered Clouds
2:55 AM 50.0 °F 46.4 °F 87% 29.68 in 5.0 mi West 15.0 mph - N/A   Scattered Clouds
3:55 AM 50.0 °F 44.6 °F 82% 29.65 in 5.0 mi West 15.0 mph - N/A   Scattered Clouds
4:00 AM 50 °F 44 °F 75% 29.68 in 5 mi West 15.0 mph - -   Mist
4:55 AM 48.2 °F 44.6 °F 87% 29.65 in 5.0 mi West 12.7 mph - N/A   Scattered Clouds
5:55 AM 48.2 °F 44.6 °F 87% 29.68 in 5.0 mi East 6.9 mph - N/A   Scattered Clouds
6:55 AM 48.2 °F 44.6 °F 87% 29.68 in 5.0 mi WSW 10.4 mph - N/A   Partly Cloudy
7:00 AM 48 °F 45 °F 86% 29.70 in 5 mi WSW 10.4 mph - -   Mist
7:55 AM 50.0 °F 44.6 °F 82% 29.71 in 6.2 mi West 10.4 mph - N/A   Partly Cloudy
8:55 AM 53.6 °F 42.8 °F 67% 29.74 in 6.2 mi West 13.8 mph - N/A   Partly Cloudy
9:55 AM 57.2 °F 41.0 °F 55% 29.74 in 6.2 mi West 11.5 mph - N/A   Partly Cloudy
10:00 AM 58 °F 41 °F 42% 29.75 in 6 mi West 11.5 mph - -   Scattered Clouds
10:55 AM 60.8 °F 41.0 °F 48% 29.74 in 6.2 mi West 13.8 mph - N/A   Scattered Clouds
11:55 AM 62.6 °F 44.6 °F 52% 29.74 in 6.2 mi WSW 13.8 mph - N/A   Scattered Clouds
12:55 PM 60.8 °F 44.6 °F 55% 29.71 in 6.2 mi West 16.1 mph - N/A   Scattered Clouds
1:00 PM 60 °F 45 °F 47% 29.74 in 6 mi West 16.1 mph - -   Mostly Cloudy
2:55 PM 60.8 °F 46.4 °F 59% 29.68 in 6.2 mi WSW 18.4 mph - N/A   Mostly Cloudy
3:55 PM 59.0 °F 50.0 °F 72% 29.68 in 5.6 mi WSW 16.1 mph - N/A   Mostly Cloudy
4:00 PM 59 °F 50 °F 64% 29.70 in 4 mi WSW 16.1 mph - -   Mist
4:55 PM 59.0 °F 46.4 °F 63% 29.68 in 5.6 mi West 13.8 mph - N/A   Scattered Clouds
5:55 PM 55.4 °F 48.2 °F 77% 29.68 in 5.6 mi West 8.1 mph - N/A   Scattered Clouds
6:55 PM 53.6 °F 50.0 °F 88% 29.71 in 6.2 mi West 10.4 mph - N/A   Mostly Cloudy
7:00 PM 54 °F 51 °F 85% 29.71 in 6 mi West 10.4 mph - -   Mostly Cloudy
7:55 PM 53.6 °F 51.8 °F 94% 29.74 in 5.0 mi West 11.5 mph - N/A Rain Light Rain
8:55 PM 50.0 °F 50.0 °F 100% 29.74 in 3.7 mi West 6.9 mph - N/A Rain Light Rain
10:00 PM 50 °F 50 °F 100% 29.74 in 4 mi WNW 15.0 mph - -   Mist
10:55 PM 50.0 °F 50.0 °F 100% 29.74 in 6.2 mi West 13.8 mph - N/A   Scattered Clouds